Dillon, MT

8:22 PM MDT on April 28, 2017 (GMT -0600)
Dillon

Weather History for KDLN - July, 2014

Change the Weather History Date:

Thursday, July 3, 2014

  Actual Average Record
Temperature  
Mean Temperature 71 °F 64 °F  
Max Temperature 89 °F 79 °F 95 °F (1961)
Min Temperature 53 °F 48 °F 31 °F (1973)
Degree Days  
Heating Degree Days 0    
Month to date heating degree days 6  
Since 1 June heating degree days 256  
Since 1 July heating degree days 6  
Cooling Degree Days 6    
Month to date cooling degree days 9  
Year to date cooling degree days 9  
Since 1 June cooling degree days 9  
Growing Degree Days 20 (Base 50)    
Moisture  
Dew Point 43 °F    
Average Humidity 42    
Maximum Humidity 66    
Minimum Humidity 17    
Precipitation  
Precipitation 0.00 in 0.04 in 0.43 in (2000)
Month to date precipitation 0.00 0.12  
Year to date precipitation 5.46 6.16  
Snow  
Snow 0.00 in - - ()
Snow Depth 0.00 in    
Sea Level Pressure  
Sea Level Pressure 29.90 in    
Wind  
Wind Speed 9 mph (South)    
Max Wind Speed 35 mph    
Max Gust Speed 47 mph    
Visibility 10 miles    
Events Thunderstorm    
T = Trace of Precipitation, MM = Missing Value Source: NWS Daily Summary

Daily Weather History Graph

Daily Weather History Graph

Search for Another Location

Airport or City:

Trip Planner

Search our weather history database for the weather conditions in past years. The results will help you decide how hot, cold, wet, or windy it might be!

Date:

Astronomy

Jul. 03, 2014 Rise Set
Actual Time 5:47 AM MDT 9:21 PM MDT
Civil Twilight 5:10 AM MDT 9:58 PM MDT
Nautical Twilight 4:20 AM MDT 10:47 PM MDT
Astronomical Twilight 3:15 AM MDT 11:52 PM MDT
Moon 12:08 PM MDT (7/3) No Moon Set
Length of Visible Light 16h 48m
Length of Day
15h 33m
Waxing Crescent, 33% of the Moon is Illuminated
Jul 3
Waxing Crescent
Jul 5
First Quarter
Jul 12
Full
Jul 18
Last Quarter
Jul 26
New

Hourly Weather History & Observations

Time (MDT) Temp. Dew Point Humidity Pressure Visibility Wind Dir Wind Speed Gust Speed Precip Events Conditions
12:53 AM 66.9 °F 42.1 °F 40% 29.88 in 10.0 mi ESE 11.5 mph - N/A   Clear
1:53 AM 64.9 °F 42.1 °F 43% 29.90 in 10.0 mi Calm Calm - N/A   Clear
2:53 AM 61.0 °F 43.0 °F 52% 29.90 in 10.0 mi South 6.9 mph - N/A   Clear
3:53 AM 57.9 °F 44.1 °F 60% 29.89 in 10.0 mi SW 8.1 mph - N/A   Clear
4:53 AM 55.0 °F 44.1 °F 67% 29.91 in 10.0 mi South 8.1 mph - N/A   Clear
5:53 AM 54.0 °F 43.0 °F 66% 29.91 in 10.0 mi SSW 9.2 mph - N/A   Clear
6:53 AM 57.0 °F 44.1 °F 62% 29.90 in 10.0 mi SW 8.1 mph - N/A   Clear
8:53 AM 66.0 °F 48.0 °F 52% 29.90 in 10.0 mi SW 8.1 mph - N/A   Clear
9:53 AM 70.0 °F 48.0 °F 46% 29.90 in 10.0 mi WSW 4.6 mph - N/A   Clear
10:53 AM 73.0 °F 46.9 °F 39% 29.89 in 10.0 mi Calm Calm - N/A   Clear
11:53 AM 78.1 °F 46.0 °F 32% 29.87 in 10.0 mi Calm Calm - N/A   Clear
1:53 PM 82.9 °F 48.9 °F 31% 29.83 in 10.0 mi SW 10.4 mph - N/A   Clear
2:53 PM 82.9 °F 45.0 °F 26% 29.84 in 10.0 mi South 10.4 mph - N/A   Partly Cloudy
3:53 PM 84.9 °F 37.9 °F 19% 29.83 in 9.0 mi SSW 16.1 mph - N/A   Clear
4:42 PM 86.0 °F 34.0 °F 16% 29.99 in 10.0 mi South 26.5 mph 36.8 mph N/A Thunderstorm Clear
4:53 PM 84.9 °F 36.0 °F 17% 29.82 in 9.0 mi South 33.4 mph 47.2 mph N/A Thunderstorm Clear
5:15 PM 82.0 °F 33.1 °F 17% 30.01 in 10.0 mi South 19.6 mph 35.7 mph N/A Thunderstorm Thunderstorm
5:29 PM 73.9 °F 41.0 °F 30% 30.05 in 10.0 mi WNW 32.2 mph 43.7 mph N/A Thunderstorm Scattered Clouds
5:42 PM 72.0 °F 46.9 °F 41% 30.05 in 10.0 mi NW 21.9 mph 28.8 mph N/A   Scattered Clouds
5:53 PM 75.0 °F 43.0 °F 32% 29.90 in 10.0 mi North 11.5 mph - N/A   Scattered Clouds
6:53 PM 81.0 °F 41.0 °F 24% 29.85 in 10.0 mi ESE 12.7 mph 20.7 mph N/A   Partly Cloudy
7:53 PM 77.0 °F 39.9 °F 26% 29.85 in 10.0 mi SSE 8.1 mph - N/A   Clear
8:53 PM 70.0 °F 46.9 °F 44% 29.87 in 10.0 mi North 6.9 mph - N/A   Clear
9:53 PM 66.0 °F 48.0 °F 52% 29.89 in 10.0 mi NE 10.4 mph - N/A   Partly Cloudy
10:53 PM 66.9 °F 45.0 °F 45% 29.90 in 10.0 mi East 9.2 mph - N/A   Clear
11:53 PM 63.0 °F 46.9 °F 56% 29.90 in 10.0 mi SSE 9.2 mph - N/A   Clear